SL-14 DEB, 45300

Orbit data source: Space-Track

SL-14 DEB, 45300 is space debris in LEO originally from a launch on Thu, 15 Aug 1991 UTC launched from the Plesetsk Missile And Space Complex (PKMTR). Debris objects in space refer to the collection of defunct objects orbiting the Earth. Examples of debris include non-operational satellites, rocket bodies, and fragments generated from explosions, collisions, or faulty payload assembly.

Loading next visibility...
Identifier
45300, 1991-056AN
Orbit
LEO
Last TLE update
6 hours ago
Origin
Manufacturer
Unknown
Mission
Spacecraft
Bus & Motor
Unknown
Mass
Unknown
Launch date (UTC)
1991-08-15 (34 years ago)
Launch vehicle
Unknown
Launch site
Plesetsk Missile And Space Complex (PKMTR)
Object type
Payload
Rocket body
Debris
Shape & HBR
Unknown
Radar Cross Section
Small (<0.1 m²)

Expand to show TLE details & history

TLE from 6 hours ago
0 SL-14 DEB
1 45300U 91056AN  25182.13164305  .00000271  00000-0  91022-3 0  9991
2 45300  82.5542  84.9672 0122215 233.3813 125.6007 12.94064004252406
Epoch: 2025-07-01T03:09Z
TLE epoch observation values (Epoch: 2025-07-01T03:09:33.959Z)
Latitude
-0.00001°
Longitude
118.14421°
Altitude
1,343.493 km
Speed
7.16 km/s
True Right ascension
05h 39m 52s
True Declination
0° 00' 00"
Sunlit
Object was in daylight at epoch
Visualization orbit readout
Latitude
24.90525°
Longitude
121.4447°
Altitude
1,371.027 km
Speed
7.137 km/s
Apparent Right ascension
06h 56m 48s
Apparent Declination
-4° 11' 01"
Sunlit
Object is in daylight
Visualization observer readout
Local Sidereal Time
20:29:38
Azimuth
36.444° NE
Elevation
-48.578°
Doppler factor
1
Orbital elements
Apogee altitude
1,376.34 km
Perigee altitude
1,189.086 km
Semi-major axis
7,660.85 km
Eccentricity
0.01222
Inclination
82.5542°
RAAN
84.9672°
Arg. of periapsis
233.3813°
True anomaly
Unknown
Mean anomaly
125.6007°
Eccentric anomaly
Unknown
Mean motion
3.23689 °/min
Orbital period
111.22 mins
BSTAR
0.00091022
Loading maneuver chart data...
Loading SW <> Apogee altitude chart data...
Loading historical data...
Loading historical data...
Loading historical data...
Loading historical data...
Loading historical data...
Loading historical data...
Loading historical data...

SL-14 DEB Visibility forecast

Observer location: undefined°, undefined°

Span
Click to sort rows by Start time (UTC) header in descending order
Start Az.
Max El. time (UTC)
Max El. Az.
Max El.
End time (UTC)
End Az.
6 mins2025-07-01 16:19:26.774Z96.367° ESE2025-07-01 16:22:26.774Z73.402° E13.249°2025-07-01 16:25:26.774Z51.209° ENE
14 mins2025-07-01 18:06:26.774Z178.203° S2025-07-01 18:12:26.774Z128.604° SE44.196°2025-07-01 18:20:26.774Z10.528° NNE
10 mins2025-07-01 20:01:26.774Z255.788° W2025-07-01 20:06:26.774Z299.006° NW19.871°2025-07-01 20:11:26.774Z338.595° N
10 mins2025-07-02 03:54:26.774Z22.285° NNE2025-07-02 03:59:26.774Z67.227° ENE22.001°2025-07-02 04:04:26.774Z113.089° SE
13 mins2025-07-02 05:46:26.774Z343.982° N2025-07-02 05:52:26.774Z260.868° W42.383°2025-07-02 05:59:26.774Z187.938° SSW
|